NICK1: Arkansas River nr Nickerson, KS

Data processed at Sat Mar 10 2018 23:14


All information presented herein is the property of the government of the United States of America and may be revised or deleted at any time without prior notice.
Dissemination of this information without the expressed written consent of the Public Affairs Office, Tulsa District U.S. Army Corps of Engineers is strictly prohibited.
These data are gathered electronically and, as presented, have not undergone any form of quality control. These data are not guaranteed to be valid or correct.
Go to home page.
Go to station list.

Upstream stations:

Downstream station:
Previous Day
Next Day
Current Day
    
SHEF ID:       NICK1     ARKANSAS R NR NICKERSON, KS
STATION TYPE:  

               PRECIP     STAGE  RIV-FLOW   CONDUCT  BAT-LOAD
                   in        ft       cfs   umho/cm      volt
              Ccp-Rev   Ccp-Rev   Ccp-Rev   Ccp-Rev   Ccp-Rev
(US/Central)
03/08 00:00      0.00      8.83        80    154314     12.09
03/08 01:00      0.00      8.83        80    154480     12.09
03/08 02:00      0.00      8.83        80    155250     12.01
03/08 03:00      0.00      8.83        80    154334     12.01
03/08 04:00      0.00      8.83        80    154946     12.01
03/08 05:00      0.00      8.84        81    154946     11.93
03/08 06:00      0.00      8.84        81    154323     11.93
03/08 07:00      0.00      8.84        81    155113     11.86
03/08 08:00      0.00      8.84        81    154643     11.77
03/08 09:00      0.00      8.83        80    154323     11.86
03/08 10:00      0.00      8.83        80    154791     12.49
03/08 11:00      0.00      8.83        80    154480     12.81
03/08 12:00      0.00      8.84        81    153553     13.37
03/08 13:00      0.00      8.84        81    154800     13.60
03/08 14:00      0.00      8.83        80    153860     13.76
03/08 15:00      0.00      8.83        80    153103     13.76
03/08 16:00      0.00      8.83        80    154024     13.53
03/08 17:00      0.00      8.83        80    153256     13.53
03/08 18:00      0.00      8.83        80    153860     13.37
03/08 19:00      0.00      8.83        80    153256     12.97
03/08 20:00      0.00      8.83        80    154168     12.33
03/08 21:00      0.00      8.83        80    154323     12.25
03/08 22:00      0.00      8.83        80    154480     12.17
03/08 23:00      0.00      8.83        80    154024     12.17